Cloud_Cover
15 51 100 30 49 100 100 46 100 100 100 88 100 20 48 0 0 0 0 0 0 0 3 2 3 3 2 1 6 1 5 2 9 100 100 87 50 79
53 100 100 100 71 69 89 83 92 100 100 99 17 52 33 6 5 5 2 4 4 2 2 5 6 9 54 5 11 24 5 5 5 100 82 0 69 63
4 100 100 100 100 100 97 88 62 56 97 95 96 9 96 14 4 4 3 0 5 5 5 5 8 4 5 4 1 5 2 0 1 100 4 1 7 100
3 5 100 100 100 100 100 100 100 100 100 100 97 47 0 2 2 31 86 5 21 5 83 7 11 46 5 5 0 0 0 2 30 53 98 42 13 87
0 1 42 100 100 100 100 100 100 100 100 100 100 100 100 10 3 53 84 100 11 56 5 100 63 5 5 10 6 4 2 5 16 25 5 5 32 56
0 25 37 78 100 100 100 100 100 100 100 100 100 95 51 10 22 39 67 6 62 49 47 94 25 10 41 89 88 49 86 60 61 100 100 78 78 86
8 6 16 4 100 100 100 100 100 100 100 100 100 100 100 100 100 75 84 100 100 66 5 10 83 89 94 99 99 100 100 100 99 100 100 100 100 98
100 100 100 80 25 100 100 100 100 100 100 100 100 100 100 78 100 100 100 100 100 30 100 95 61 100 100 100 100 100 100 100 100 100 100 100 100 100
100 100 100 100 100 100 100 100 100 100 100 100 100 100 100 100 100 100 100 100 100 39 98 95 100 100 100 100 100 100 100 100 95 100 100 100 100 100
58 88 100 99 98 91 100 100 98 92 96 100 100 100 100 100 100 100 100 100 100 100 100 100 99 100 100 100 100 100 100 100 100 100 100 100 100 96
100 47 17 47 99 100 100 100 100 100 100 100 100 100 100 100 100 100 100 100 100 100 100 100 100 100 100 100 100 100 100 100 100 100 100 100 100 100
100 96 66 96 36 100 100 100 100 89 77 100 100 100 100 96 100 100 100 100 100 100 69 100 100 100 100 100 100 100 100 100 100 100 100 100 100 100
100 100 50 19 90 100 100 100 91 86 100 100 100 100 100 100 100 100 100 100 100 100 100 100 100 100 100 100 100 100 100 100 100 100 100 100 100 100
100 98 13 19 6 55 98 100 99 99 100 100 100 100 100 100 100 100 100 100 100 100 100 100 100 100 100 100 100 100 100 100 100 100 100 100 100 100
100 100 86 100 5 36 98 100 100 100 100 100 100 100 100 100 100 100 100 100 100 100 100 100 100 100 100 100 100 100 100 100 100 100 100 100 100 100
93 99 100 100 31 63 64 97 100 100 100 99 99 88 100 100 100 100 100 100 100 100 100 100 100 100 100 100 100 100 100 100 100 100 100 100 100 100
100 100 100 100 100 100 77 98 100 97 88 63 85 94 100 100 100 100 98 100 100 100 100 100 100 100 100 100 100 100 100 100 100 100 100 100 100 91
100 100 100 100 100 90 100 95 99 93 88 99 70 90 100 100 100 100 100 99 94 100 100 70 100 100 100 100 100 100 100 100 100 60 10 62 95 100
100 100 100 100 100 100 100 79 66 100 100 99 100 100 100 100 100 100 100 100 100 100 100 100 29 38 85 94 53 46 20 60 41 17 55 78 99 100
100 100 100 100 100 100 100 71 99 100 100 98 100 100 100 100 100 100 100 100 100 100 100 100 100 99 67 44 63 69 62 27 30 66 48 11 80 100
100 100 100 100 100 100 92 95 97 92 98 100 100 100 100 100 100 100 100 100 100 100 100 100 100 100 100 76 6 8 11 5 5 13 42 80 80 19
100 100 100 100 100 100 100 100 98 100 100 100 100 100 100 100 100 100 100 100 100 100 100 100 100 100 100 84 74 60 8 5 4 5 5 4 5 4
100 100 100 100 100 100 100 100 100 98 100 100 100 100 99 100 100 100 100 100 100 100 100 100 100 100 100 100 73 76 97 98 61 7 5 5 5 5